TimeCDT,TemperatureF,Dew PointF,Humidity,Sea Level PressureIn,VisibilityMPH,Wind Direction,Wind SpeedMPH,Gust SpeedMPH,PrecipitationIn,Events,Conditions,WindDirDegrees,DateUTC
12:09 AM,57.2,55.4,94,29.83,10.0,West,4.6,-,N/A,,Mostly Cloudy,260,2013-08-06 05:09:00
12:53 AM,60.1,57.0,90,29.82,10.0,West,4.6,-,N/A,,Overcast,280,2013-08-06 05:53:00
1:02 AM,60.8,57.2,88,29.81,10.0,West,3.5,-,N/A,,Mostly Cloudy,280,2013-08-06 06:02:00
1:51 AM,55.4,53.6,94,29.80,1.2,Calm,Calm,-,N/A,,Partly Cloudy,0,2013-08-06 06:51:00
1:53 AM,55.0,53.1,93,29.81,1.0,Calm,Calm,-,N/A,,Partly Cloudy,0,2013-08-06 06:53:00
2:00 AM,53.6,51.8,94,29.80,0.8,Calm,Calm,-,N/A,,Clear,0,2013-08-06 07:00:00
2:08 AM,53.6,53.6,100,29.80,1.8,Calm,Calm,-,N/A,,Clear,0,2013-08-06 07:08:00
2:15 AM,51.8,50.0,94,29.80,0.8,Calm,Calm,-,N/A,,Mist,0,2013-08-06 07:15:00
2:30 AM,51.8,51.8,100,29.79,0.2,Calm,Calm,-,N/A,Fog,Fog,0,2013-08-06 07:30:00
2:40 AM,51.8,50.0,94,29.78,0.5,Calm,Calm,-,N/A,Fog,Fog,0,2013-08-06 07:40:00
2:48 AM,51.8,50.0,94,29.78,0.2,Calm,Calm,-,N/A,Fog,Fog,0,2013-08-06 07:48:00
2:53 AM,51.1,48.9,92,29.78,0.2,Calm,Calm,-,N/A,Fog,Fog,0,2013-08-06 07:53:00
3:17 AM,50.0,48.2,94,29.79,0.5,NW,3.5,-,N/A,Fog,Fog,320,2013-08-06 08:17:00
3:36 AM,48.2,48.2,100,29.81,1.2,West,4.6,-,0.01,,Scattered Clouds,260,2013-08-06 08:36:00
3:51 AM,50.0,48.2,94,29.79,3.0,Calm,Calm,-,0.01,,Partly Cloudy,0,2013-08-06 08:51:00
3:53 AM,50.0,48.9,96,29.80,6.0,Calm,Calm,-,0.01,,Partly Cloudy,0,2013-08-06 08:53:00
3:56 AM,50.0,48.2,94,29.79,1.8,Calm,Calm,-,N/A,,Partly Cloudy,0,2013-08-06 08:56:00
4:02 AM,48.2,46.4,93,29.79,0.8,Calm,Calm,-,N/A,,Mist,0,2013-08-06 09:02:00
4:10 AM,50.0,48.2,94,29.78,1.2,Calm,Calm,-,N/A,,Scattered Clouds,0,2013-08-06 09:10:00
4:14 AM,50.0,48.2,94,29.79,0.8,Calm,Calm,-,N/A,,Mist,0,2013-08-06 09:14:00
4:25 AM,48.2,48.2,100,29.79,0.2,Calm,Calm,-,N/A,Fog,Fog,0,2013-08-06 09:25:00
4:37 AM,48.2,46.4,93,29.78,0.5,Calm,Calm,-,N/A,Fog,Fog,0,2013-08-06 09:37:00
4:53 AM,48.0,46.9,96,29.78,0.2,Calm,Calm,-,N/A,Fog,Fog,0,2013-08-06 09:53:00
5:29 AM,46.4,46.4,100,29.77,0.5,Calm,Calm,-,N/A,Fog,Fog,0,2013-08-06 10:29:00
5:53 AM,48.0,46.0,93,29.79,0.2,Calm,Calm,-,N/A,Fog,Fog,0,2013-08-06 10:53:00
6:37 AM,51.8,48.2,88,29.79,0.5,SW,3.5,-,N/A,Fog,Fog,220,2013-08-06 11:37:00
6:46 AM,51.8,50.0,94,29.79,0.2,Calm,Calm,-,N/A,Fog,Fog,0,2013-08-06 11:46:00
6:53 AM,53.1,51.1,93,29.80,0.2,Calm,Calm,-,N/A,Fog,Fog,0,2013-08-06 11:53:00
7:53 AM,55.0,54.0,96,29.80,0.2,Calm,Calm,-,N/A,Fog,Fog,0,2013-08-06 12:53:00
8:25 AM,57.2,55.4,94,29.79,0.5,South,3.5,-,N/A,Fog,Fog,180,2013-08-06 13:25:00
8:53 AM,57.9,57.0,97,29.79,1.0,Calm,Calm,-,N/A,,Overcast,0,2013-08-06 13:53:00
9:01 AM,59.0,57.2,94,29.78,4.0,Calm,Calm,-,N/A,,Mostly Cloudy,0,2013-08-06 14:01:00
9:16 AM,60.8,57.2,88,29.78,10.0,Calm,Calm,-,N/A,,Scattered Clouds,0,2013-08-06 14:16:00
9:53 AM,64.0,59.0,84,29.79,10.0,SSE,3.5,-,N/A,,Clear,150,2013-08-06 14:53:00
10:53 AM,64.9,59.0,81,29.79,10.0,SSE,3.5,-,N/A,,Mostly Cloudy,160,2013-08-06 15:53:00
11:53 AM,66.9,57.9,73,29.79,10.0,SW,5.8,-,0.00,Rain,Light Rain,220,2013-08-06 16:53:00
12:53 PM,66.9,55.9,68,29.78,10.0,SW,4.6,-,N/A,,Scattered Clouds,220,2013-08-06 17:53:00
1:53 PM,68.0,57.9,70,29.78,10.0,Calm,Calm,-,0.00,Rain,Light Rain,0,2013-08-06 18:53:00
2:53 PM,69.1,55.9,63,29.78,10.0,West,5.8,-,0.00,,Overcast,260,2013-08-06 19:53:00
3:53 PM,66.9,59.0,76,29.78,10.0,Calm,Calm,-,0.00,,Overcast,0,2013-08-06 20:53:00
4:53 PM,69.1,57.9,68,29.76,10.0,Calm,Calm,-,N/A,,Scattered Clouds,0,2013-08-06 21:53:00
5:53 PM,69.1,57.9,68,29.77,10.0,WNW,3.5,-,N/A,,Overcast,290,2013-08-06 22:53:00
6:53 PM,64.9,60.1,84,29.76,8.0,Calm,Calm,-,0.04,Rain,Light Rain,0,2013-08-06 23:53:00
7:53 PM,64.9,61.0,87,29.78,10.0,North,3.5,-,0.00,,Scattered Clouds,350,2013-08-07 00:53:00
8:53 PM,63.0,60.1,90,29.78,10.0,Calm,Calm,-,N/A,,Overcast,0,2013-08-07 01:53:00
9:40 PM,62.6,59.0,88,29.78,10.0,North,4.6,-,N/A,,Overcast,350,2013-08-07 02:40:00
9:50 PM,62.6,59.0,88,29.78,10.0,NNW,6.9,-,N/A,,Overcast,340,2013-08-07 02:50:00
9:53 PM,62.1,59.0,90,29.79,10.0,NNW,6.9,-,N/A,,Overcast,340,2013-08-07 02:53:00
10:53 PM,61.0,57.9,90,29.79,10.0,NNW,8.1,-,N/A,,Overcast,330,2013-08-07 03:53:00
11:15 PM,62.6,57.2,82,29.79,10.0,North,9.2,-,N/A,,Overcast,350,2013-08-07 04:15:00
11:53 PM,61.0,57.0,87,29.80,10.0,North,8.1,-,N/A,,Overcast,350,2013-08-07 04:53:00